TimeCDT,TemperatureF,Dew PointF,Humidity,Sea Level PressureIn,VisibilityMPH,Wind Direction,Wind SpeedMPH,Gust SpeedMPH,PrecipitationIn,Events,Conditions,WindDirDegrees,DateUTC
12:15 AM,32.0,30.2,93,30.27,10.0,Calm,Calm,-,N/A,,Partly Cloudy,0,2012-10-28 05:15:00
12:35 AM,33.8,30.2,87,30.27,10.0,Calm,Calm,-,N/A,,Partly Cloudy,0,2012-10-28 05:35:00
12:55 AM,37.4,28.4,70,30.27,10.0,Calm,Calm,-,N/A,,Scattered Clouds,0,2012-10-28 05:55:00
1:15 AM,33.8,28.4,81,30.27,10.0,Calm,Calm,-,N/A,,Scattered Clouds,0,2012-10-28 06:15:00
1:35 AM,35.6,28.4,75,30.26,10.0,Calm,Calm,-,N/A,,Scattered Clouds,0,2012-10-28 06:35:00
1:55 AM,33.8,28.4,81,30.26,10.0,Calm,Calm,-,N/A,,Scattered Clouds,0,2012-10-28 06:55:00
2:15 AM,32.0,30.2,93,30.26,10.0,Calm,Calm,-,N/A,,Partly Cloudy,0,2012-10-28 07:15:00
2:35 AM,33.8,28.4,81,30.26,10.0,Calm,Calm,-,N/A,,Clear,0,2012-10-28 07:35:00
2:55 AM,33.8,28.4,81,30.26,10.0,Calm,Calm,-,N/A,,Clear,0,2012-10-28 07:55:00
3:15 AM,32.0,28.4,87,30.25,10.0,Calm,Calm,-,N/A,,Clear,0,2012-10-28 08:15:00
3:35 AM,32.0,28.4,87,30.25,10.0,Calm,Calm,-,N/A,,Clear,0,2012-10-28 08:35:00
3:55 AM,32.0,28.4,87,30.25,10.0,Calm,Calm,-,N/A,,Clear,0,2012-10-28 08:55:00
4:15 AM,32.0,28.4,87,30.25,10.0,Calm,Calm,-,N/A,,Clear,0,2012-10-28 09:15:00
4:35 AM,33.8,28.4,81,30.25,10.0,Calm,Calm,-,N/A,,Clear,0,2012-10-28 09:35:00
4:55 AM,32.0,28.4,87,30.25,10.0,Calm,Calm,-,N/A,,Clear,0,2012-10-28 09:55:00
5:15 AM,32.0,28.4,87,30.25,10.0,Calm,Calm,-,N/A,,Clear,0,2012-10-28 10:15:00
5:35 AM,32.0,28.4,87,30.26,10.0,Calm,Calm,-,N/A,,Clear,0,2012-10-28 10:35:00
5:55 AM,32.0,28.4,87,30.26,10.0,Calm,Calm,-,N/A,,Clear,0,2012-10-28 10:55:00
6:15 AM,32.0,28.4,87,30.26,10.0,Calm,Calm,-,N/A,,Clear,0,2012-10-28 11:15:00
6:35 AM,32.0,28.4,87,30.27,10.0,Calm,Calm,-,N/A,,Clear,0,2012-10-28 11:35:00
6:55 AM,30.2,28.4,93,30.28,8.0,Calm,Calm,-,N/A,,Clear,0,2012-10-28 11:55:00
7:15 AM,30.2,28.4,93,30.28,8.0,Calm,Calm,-,N/A,,Clear,0,2012-10-28 12:15:00
7:35 AM,32.0,28.4,87,30.29,8.0,Calm,Calm,-,N/A,,Clear,0,2012-10-28 12:35:00
7:55 AM,32.0,30.2,93,30.29,9.0,Calm,Calm,-,N/A,,Clear,0,2012-10-28 12:55:00
8:35 AM,37.4,30.2,75,30.29,10.0,Calm,Calm,-,N/A,,Clear,0,2012-10-28 13:35:00
8:55 AM,39.2,30.2,70,30.29,10.0,WNW,3.5,-,N/A,,Clear,290,2012-10-28 13:55:00
9:15 AM,41.0,28.4,61,30.29,10.0,NNW,6.9,-,N/A,,Clear,330,2012-10-28 14:15:00
9:35 AM,41.0,26.6,57,30.29,10.0,North,4.6,-,N/A,,Clear,350,2012-10-28 14:35:00
9:55 AM,44.6,26.6,49,30.29,10.0,NNW,8.1,-,N/A,,Clear,340,2012-10-28 14:55:00
10:15 AM,44.6,24.8,46,30.29,10.0,North,12.7,18.4,N/A,,Clear,350,2012-10-28 15:15:00
10:35 AM,44.6,24.8,46,30.28,10.0,North,9.2,18.4,N/A,,Clear,350,2012-10-28 15:35:00
10:55 AM,46.4,24.8,43,30.28,10.0,North,10.4,18.4,N/A,,Clear,350,2012-10-28 15:55:00
11:35 AM,46.4,24.8,43,30.27,10.0,North,10.4,18.4,N/A,,Clear,360,2012-10-28 16:35:00
11:55 AM,46.4,24.8,43,30.26,10.0,North,9.2,-,N/A,,Clear,10,2012-10-28 16:55:00
12:15 PM,46.4,26.6,46,30.26,10.0,NNW,8.1,16.1,N/A,,Clear,340,2012-10-28 17:15:00
12:35 PM,48.2,26.6,43,30.25,10.0,NNW,6.9,18.4,N/A,,Clear,340,2012-10-28 17:35:00
12:55 PM,48.2,26.6,43,30.25,10.0,NNW,4.6,-,N/A,,Clear,330,2012-10-28 17:55:00
1:15 PM,48.2,24.8,40,30.24,10.0,NNW,10.4,-,N/A,,Clear,330,2012-10-28 18:15:00
1:35 PM,48.2,24.8,40,30.23,10.0,North,10.4,17.3,N/A,,Clear,350,2012-10-28 18:35:00
1:55 PM,48.2,24.8,40,30.24,10.0,NW,4.6,-,N/A,,Clear,320,2012-10-28 18:55:00
2:15 PM,50.0,24.8,37,30.23,10.0,NW,10.4,16.1,N/A,,Clear,320,2012-10-28 19:15:00
2:35 PM,50.0,24.8,37,30.23,10.0,North,6.9,-,N/A,,Clear,350,2012-10-28 19:35:00
2:55 PM,50.0,26.6,40,30.23,10.0,NNW,10.4,-,N/A,,Clear,340,2012-10-28 19:55:00
3:35 PM,48.2,24.8,40,30.23,10.0,North,9.2,-,N/A,,Clear,360,2012-10-28 20:35:00
3:55 PM,50.0,26.6,40,30.23,10.0,North,6.9,-,N/A,,Clear,350,2012-10-28 20:55:00
4:15 PM,48.2,26.6,43,30.23,9.0,North,6.9,-,N/A,,Clear,360,2012-10-28 21:15:00
4:35 PM,48.2,28.4,46,30.24,10.0,North,9.2,-,N/A,,Partly Cloudy,350,2012-10-28 21:35:00
4:55 PM,48.2,28.4,46,30.24,7.0,North,4.6,-,N/A,,Partly Cloudy,360,2012-10-28 21:55:00
5:15 PM,46.4,28.4,50,30.24,5.0,Calm,Calm,-,N/A,,Haze,0,2012-10-28 22:15:00
5:35 PM,46.4,28.4,50,30.24,8.0,Calm,Calm,-,N/A,,Clear,0,2012-10-28 22:35:00
5:55 PM,44.6,28.4,53,30.24,10.0,Calm,Calm,-,N/A,,Clear,0,2012-10-28 22:55:00
6:15 PM,44.6,28.4,53,30.24,10.0,Calm,Calm,-,N/A,,Clear,0,2012-10-28 23:15:00
6:35 PM,41.0,30.2,65,30.24,10.0,Calm,Calm,-,N/A,,Clear,0,2012-10-28 23:35:00
6:55 PM,39.2,30.2,70,30.24,10.0,Calm,Calm,-,N/A,,Clear,0,2012-10-28 23:55:00
7:15 PM,37.4,30.2,75,30.25,10.0,Calm,Calm,-,N/A,,Partly Cloudy,0,2012-10-29 00:15:00
7:55 PM,35.6,30.2,81,30.26,10.0,Calm,Calm,-,N/A,,Clear,0,2012-10-29 00:55:00
8:15 PM,35.6,30.2,81,30.26,10.0,Calm,Calm,-,N/A,,Clear,0,2012-10-29 01:15:00
8:35 PM,35.6,30.2,81,30.27,10.0,Calm,Calm,-,N/A,,Partly Cloudy,0,2012-10-29 01:35:00
8:55 PM,35.6,30.2,81,30.27,10.0,Calm,Calm,-,N/A,,Clear,0,2012-10-29 01:55:00
9:15 PM,33.8,30.2,87,30.27,10.0,Calm,Calm,-,N/A,,Clear,0,2012-10-29 02:15:00
9:55 PM,32.0,30.2,93,30.27,10.0,Calm,Calm,-,N/A,,Clear,0,2012-10-29 02:55:00
10:15 PM,32.0,30.2,93,30.28,10.0,Calm,Calm,-,N/A,,Clear,0,2012-10-29 03:15:00
10:35 PM,35.6,30.2,81,30.29,10.0,Calm,Calm,-,N/A,,Clear,0,2012-10-29 03:35:00
10:55 PM,35.6,30.2,81,30.29,10.0,Calm,Calm,-,N/A,,Clear,0,2012-10-29 03:55:00
11:15 PM,35.6,30.2,81,30.28,10.0,Calm,Calm,-,N/A,,Clear,0,2012-10-29 04:15:00
11:35 PM,35.6,30.2,81,30.28,10.0,Calm,Calm,-,N/A,,Clear,0,2012-10-29 04:35:00
11:55 PM,32.0,30.2,93,30.28,10.0,Calm,Calm,-,N/A,,Clear,0,2012-10-29 04:55:00